STARLINK-11101, 59715

Orbit data source: Space-Track

STARLINK-11101, 59715 is a payload satellite owned by SpaceX/Seattle (US) in LEO that was launched on Fri, 10 May 2024 UTC via an FALCON 9 launch vehicle from the Air Force Western Test Range (AFWTR). Payload-class satellites include a variety of spacecraft equipped with specific instruments for various scientific and technological missions. These include communications satellites like Starlink; space stations such as the ISS; scientific satellites like the Hubble; Earth observation satellites from companies like Planet Labs, Umbra, and HawkEye 360; GPS; miniature CubeSats for education and research; and military/defense satellites.

Loading next visibility...
Identifier
59715, 2024-088H
Orbit
LEO
Country
Flag of USUS
Related business
Manufacturer
SpaceX/Seattle
Mission
Operational Commercial Communications
Bus & Motor
STARLINK V2MD, Unknown motor
Mass
960 kg wet, ~910 kg dry
Launch date (UTC)
2024-05-10 (2 years ago)
Launch vehicle
FALCON 9
Launch site
Air Force Western Test Range (AFWTR)
Object type
Payload
Rocket body
Debris
Shape & HBR
Box + 2 Pan, 18.1 m
Radar Cross Section
36.964 m², Large (>1 m²)

Expand to show TLE details & history
Last TLE update: 11 hours ago

TLE from 11 hours ago
0 STARLINK-11101
1 59715U 24088H   25346.84586990  .00004878  00000-0  45070-4 0  9995
2 59715  53.1585  34.2899 0000953  95.6680 264.4447 15.69725916 92634
Epoch: 2025-12-12T20:18Z
TLE epoch observation values (Epoch: 2025-12-12T20:18:03.159Z)
Latitude
0.00002°
Longitude
7.99511°
Altitude
360.658 km
Speed
7.694 km/s
True Right ascension
02h 17m 09s
True Declination
0° 00' 00"
Sunlit
Object was in full shadow at epoch
Visualization orbit readout
Latitude
Unknown
Longitude
Unknown
Altitude
Unknown
Speed
Unknown
Apparent Right ascension
Unknown
Apparent Declination
Unknown
Sunlit
N/A
Visualization observer readout
Local Sidereal Time
05:22:28
Azimuth
Unknown
Elevation
Unknown
Doppler factor
Unknown
Orbital elements
Apogee altitude
360.584 km
Perigee altitude
359.3 km
Semi-major axis
6,738.079 km
Eccentricity
0.0001
Inclination
53.1585°
RAAN
34.2899°
Arg. of periapsis
95.668°
True anomaly
264.43383°
Mean anomaly
264.4447°
Eccentric anomaly
264.43927°
Mean motion
3.92409 °/min
Orbital period
91.74 mins
BSTAR
0.00004507
Loading maneuver chart data...
Computing Atmospheric mass density...
Loading historical data...
Loading historical data...
Loading historical data...
Loading historical data...
Loading historical data...
Loading historical data...
Loading historical data...

Documentation

Showing up to 5 results
|